Погода в Витиме

Погода в Витиме : погода сейчас, прогноз погоды и архив. Всё, что Вы хотите узнать о погоде в Витиме!

Хотите узнать прогноз погоды в Витиме? Тогда Вам сюда: Погода в Витиме

Поиск расширенной информации на нашем сайте:

Другие новости

Новости СМИ2

Главная страница сайта

Новости сайта

03.07.2017

Напоминаем, что на нашем специализированном сайте Метеоцентр.Азия вы можете получить высокодетализированные автоматические прогнозы погоды по пунктам России, СНГ и мира в авиационном формате (включающие направление и скорость ветра, видимость, явления погоды, количество и форму облачности, нижнюю и верхнюю границу облачности).

Рекомендуем: Купить повязка воскопран цена.

Погода в Витиме - сегодня

Время (UTC), дата Ветер
(°,м/с) 
Видим.   Явления Облачность Т
(°С)
Тd
(°С)
f(%) Тe
(°С)
Pmin
(гПа)
dP
(гПа)
Po
(мм)
O2
(г/м3)
Тmin Tmax R s Состояние
почвы
00 18.07.17 350 (С) 20000 м    9/5 600 м средняя, верхняя 
[Sc|Ac lent|Ci fib]
+13.8 +12.1 89 +19  1011.6  0.7  742  282  +12.9      мокрая 
03 18.07.17 030 (СВ) 20000 м    9/4 600 м средняя, верхняя 
[Sc|Ac trans|Ci fib]
+17.4 +8.9 57 +18  1011.5  0.2  742  279           
06 18.07.17 050 (СВ) 20000 м    8/4 1000 м кучево-дожд., средняя, верхняя 
[Cb cap|Ac lent|Ci fib]
+18.6 +10 57 +21  1011.2  -0.2  742  278           
09 18.07.17 040 (СВ) 20000 м    8/5 1000 м верхняя 
[Cu hum|Ci fib]
+21 +8.7 45 +21  1010.9  -0.1  742  276           
12 18.07.17 230 (ЮЗ) 20000 м    3/0 средняя, верхняя 
[Ac lent|Ci fib]
+19.8 +9.9 53 +22  1011.4  0.4  742  277    +21.8       
15 18.07.17 тихо ()   20000 м    4/0 средняя 
[Ac cast]
+12.4 +11.1 92 +15  1012.4  0.5  742  284           
18 18.07.17 тихо ()   20000 м    3/0 средняя 
[Ac lent]
+8.5 +7.9 96 +9  1013.1  0.3  743  289           
21 18.07.17 тихо ()   20000 м    6/6 600 м 
[St]
+6.9 +6.5 97 +7  1013.9  0.7  743  291           
00 19.07.17 тихо ()   20000 м    1/0 верхняя 
[Ci fib]
+12.1 +10.8 92 +15  1013.4  743  285  +6.5        влажная 
03 19.07.17 160 (Ю) 20000 м    3/3 1000 м кучево-дожд. 
[Cb cap]
+18.9 +10.8 59 +22  1011.9  -1.1  742  278           
06 19.07.17 110 (В) 20000 м    4/4 1000 м кучево-дожд. 
[Cb cap]
+23.7 +7.8 36 +24  1009.7  -1.8  741  273           
09 19.07.17 240 (ЮЗ) 20000 м    4/4 1000 м 
[Cu hum]
+25.5 +9 35 +26  1008.7  -0.8  740  271           
12 19.07.17 тихо ()   20000 м    3/0 верхняя 
[Ci fib]
+24.1 +11.8 46 +28  1008.1  -0.6  740  272    +25.8       
15 19.07.17 тихо ()   20000 м    ясно 
+14.3 +12.3 88 +19  1008.9  740  281           
18 19.07.17 тихо ()   20000 м    ясно 
+9.6 +8.8 95 +10  1009.6  0.3  740  287           
21 19.07.17 тихо ()   20000 м    ясно 
+7.7 +7.3 97 +8  1010  0.3  740  289           
00 20.07.17 130 (ЮВ) 20000 м    ясно 
+14.4 +11.4 82 +19  1010  0.4  741  281  +7.5        сухая 
03 20.07.17 140 (ЮВ) 20000 м    3/0 средняя 
[Ac trans]
+20.9 +12.2 57 +25  1008.5  -0.8  740  275           
06 20.07.17 020 (С) 20000 м    6/4 1000 м верхняя 
[Cu hum|Ci fib]
+25.8 +10.2 37 +28  1007.1  -1.2  739  270           
09 20.07.17 090 (В) 20000 м    4/4 1000 м 
[Cu hum]
+26.9 +8.6 32 +27  1006  -1  738  269           
12 20.07.17 тихо ()   20000 м    3/3 1000 м 
[Cu hum]
+23.3 +15.1 60 +33  1005.7  -0.5  738  271    +27.2       
15 20.07.17 010 (С) 20000 м    3/3 1000 м 
[Sc diur, vesp]
+17.6 +12.4 72 +23  1007.3  1.2  739  277           
18 20.07.17 340 (С) 20000 м    3/0 средняя 
[Ac lent]
+14.8 +12.8 88 +20  1007.4  -0.2  739  280           
21 20.07.17 020 (С) 20000 м    8/3 1000 м кучево-дожд., средняя 
[Cb cap|Ac trans]
+14.1 +12.5 90 +19  1008.3  0.9  740  281           
00 21.07.17 040 (СВ) 20000 м    9/6 600 м кучево-дожд., средняя 
[Cb cap|Ac trans]
+14.9 +12 83 +18  1008.8  0.5  740  280  +14        сухая 
Время (UTC), дата Ветер
(°,м/с) 
Видим.   Явления Облачность Т
(°С)
Тd
(°С)
f(%) Тe
(°С)
Pmin
(гПа)
dP
(гПа)
Po
(мм)
O2
(г/м3)
Тmin Tmax R s Состояние
почвы

Для получения пояснительной информации подведите курсор к названию столбца.

ПОГОДА в Витиме - архив

Всё, что Вы хотите узнать о погоде в Витиме - удобно и подробно!

Выберите нужную дату (начиная с 1 января 2015* года) и нажмите кнопку "Найти".
Будут отображены архивные сводки погоды по пункту Витим, начиная с указанной даты.


Отображать данные в формате CSV (для использования в таблицах Excel)


Внимание! Наш архив погоды предназначен исключительно для личного некоммерческого использования в познавательных целях. Если Вам необходимы официальные справки о состоянии погоды (для производственных, юридических, коммерческих и т.п. целей), обращайтесь в органы Росгидромета.

*Примечание: данная дата относится к архиву по метеостанциям СССР (Россия, СНГ, Балтия).
Архив по метеостанциям Зарубежной Европы и Азии (кроме Китая) хранится 10 дней, по другим регионам земного шара (Китай, Африка, Америка, Австралия, Океания) - 1 день.

Витим - район местоположения метеостанции


Название, широта, долгота, высота метеостанции:
Витим 59.4°ш. 112.6°д. 190 м над ур. моря [Российская Федерация]

Дополнительная информация

В oтличие oт бoльшинства пoгoдных сайтoв мы публикуем пoдрoбную метеoинфoрмацию в детальнoм прoфессиoнальнoм фoрмате.

Характеристики температуры и влажнoсти вoздуха измеряются на высoте 2 м в тени вдали oт зданий и деревьев.
Скoрoсть ветра измеряется на высoте 10 м (на урoвне рoста челoвека скoрoсть ветра ниже в 1.5-2 раза). Если метеoстанция нахoдится в гoрoде или в лесу, тo скoрoсть ветра занижена на 2-4 м/с пo сравнению с oткрытым местoм. Скoрoсть ветра над акватoриями крупных рек и oзёр, а также на вершинах хoлмoв на 2-5 м/с выше, чем в oбычных услoвиях.
Атмoсфернoе давление в разных тoчках местнoсти мoжет значительнo oтличаться oт давления на метеoстанции, в зависимoсти oт услoвий рельефа (при пoдъёме на 10 м давление пoнижается примернo на 1 мм рт.ст.).